#timestamp,LO_Frequency,Hit,StdDev 
1515762015.2,286046998.8,N
1515762035.0,286046999.6,N
1515762035.9,286046999.6,N
1515762055.7,286046998.6,N
1515762075.6,286046998.2,N
1515762095.4,286047000.9,N
1515762115.3,286046999.1,N
1515762135.1,286046996.5,N
1515762136.0,286046996.5,N
1515762155.8,286046996.6,N
1515762175.7,286046996.7,N
1515762195.5,286046998.0,N
1515762215.4,286046999.1,N
1515762235.2,286046996.7,N
1515762255.0,286046997.0,N
1515762255.9,286046997.0,N
1515762275.8,286046997.4,N
1515762295.6,286046997.7,N
1515762315.4,286046994.9,Y
1515762335.3,286047001.0,P
1515762355.1,286047000.3,N
1515762375.9,286047000.1,N
1515762395.7,286047002.4,N
1515762415.5,286047002.3,N
1515762435.4,286046999.7,N
1515762455.2,286047000.0,N
1515762475.0,286047002.7,N
1515762475.9,286047002.7,N
1515762495.8,286047001.1,N
1515762515.6,286046999.4,N
1515762535.5,286046997.3,N
1515762555.3,286046997.8,N
1515762575.1,286046997.6,N
1515762595.9,286046994.9,N
1515762615.7,286046998.0,N
1515762635.5,286046997.8,N
1515762655.4,286046997.1,N
1515762675.2,286046998.6,N
1515762695.1,286046998.2,N
1515762696.0,286046998.2,N
1515762715.8,286046999.4,N
1515762735.6,286046996.8,N
1515762755.5,286046998.7,N
1515762775.3,286046998.2,N
1515762795.1,286046998.1,N
1515762815.9,286046998.6,N
1515762835.7,286046996.5,N
1515762855.6,286046998.6,N
1515762875.4,286047000.9,N
1515762895.2,286046998.2,N
1515762915.1,286047000.3,N
1515762916.0,286047000.3,N
1515762935.8,286047000.2,N
1515762955.6,286047000.4,N
1515762975.5,286047000.6,N
1515762995.3,286047000.0,N
1515763015.2,286046999.9,N
1515763035.9,286047000.0,N
1515763055.7,286047000.4,N
1515763075.6,286047000.2,N
1515763095.4,286047002.4,N
1515763115.2,286047002.6,N
1515763135.1,286047000.9,N
1515763136.0,286047000.9,N
1515763155.8,286047011.9,Y
1515763175.7,286047002.1,P
1515763195.5,286047001.8,N
1515763215.3,286047001.4,N
1515763235.2,286047001.7,N
1515763255.0,286047001.8,N
1515763255.9,286047001.8,N
1515763275.8,286047001.8,N
1515763295.6,286047004.2,Y
1515763315.4,286047000.6,P
1515763335.3,286047001.0,N
1515763355.1,286047000.3,N
1515763375.8,286047000.0,N
1515763395.7,286047000.1,N
1515763415.5,286047002.4,Y
1515763435.4,286047002.0,P
1515763455.2,286047000.2,N
1515763475.0,286047001.2,N
1515763475.9,286047001.2,N
1515763495.8,286047002.7,Y
1515763515.6,286047000.9,P
1515763535.5,286047000.0,N
1515763555.3,286046998.4,P
1515763575.1,286046998.5,N
1515763595.9,286046997.0,N
1515763615.7,286046999.1,N
1515763635.5,286046999.3,N
1515763655.4,286046996.6,N
1515763675.2,286046999.1,N
1515763695.1,286046998.2,N
1515763696.0,286046998.2,N
1515763715.8,286047000.7,N
1515763735.6,286047001.1,N
1515763755.5,286047000.6,N
1515763775.3,286047000.4,N
1515763795.1,286047000.9,N
1515763815.9,286047000.9,N
1515763835.7,286047001.0,N
1515763855.6,286047001.2,N
1515763875.4,286046998.1,N
1515763895.2,286047000.9,N
1515763915.1,286046998.6,N
1515763916.0,286046998.6,N
1515763935.8,286046998.1,N
1515763955.6,286046998.1,N
1515763975.5,286046998.6,N
1515763995.3,286047001.2,N
1515764015.1,286047002.4,N
1515764035.9,286047002.8,N
1515764055.7,286047002.8,N
1515764075.6,286047001.2,N
1515764095.4,286047001.2,N
1515764115.2,286047001.2,N
1515764135.1,286046999.0,N
1515764136.0,286046999.0,N
1515764155.8,286046999.0,N
1515764175.6,286046999.4,N
1515764195.5,286046998.3,N
1515764215.3,286047000.4,N
1515764235.2,286047002.8,N
1515764255.9,286047002.6,N
1515764275.7,286047004.0,N
1515764295.6,286047004.1,N
1515764315.4,286047003.9,N
1515764335.3,286047003.4,N
1515764355.1,286047003.1,N
1515764356.0,286047003.1,N
1515764375.8,286047001.3,N
1515764395.7,286047003.6,N
1515764415.5,286047003.5,N
1515764435.3,286047002.9,N
1515764455.2,286047003.1,N
1515764475.0,286047005.6,N
1515764475.9,286047005.6,N
1515764495.8,286047003.7,N
1515764515.6,286047005.5,N
1515764535.4,286047006.0,Y
1515764555.3,286047002.5,P
1515764575.1,286046999.9,N
1515764595.9,286047000.4,N
1515764615.7,286047000.2,N
1515764635.5,286047001.1,N
1515764655.4,286046998.5,N
1515764675.2,286046999.4,N
1515764695.0,286046998.8,N
1515764695.9,286046998.8,N
1515764715.8,286046998.2,N
1515764735.6,286046998.5,N
1515764755.5,286047000.2,N
1515764775.3,286047002.8,N
1515764795.1,286047000.3,N
1515764815.9,286047000.1,N
1515764835.7,286047002.6,N
1515764855.6,286046999.7,N
1515764875.4,286047000.6,N
1515764895.2,286047000.5,N
1515764915.1,286046998.1,N
1515764916.0,286046998.1,N
1515764935.8,286047000.5,N
1515764955.7,286047001.6,N
1515764975.5,286047004.2,N
1515764995.3,286047004.0,N
1515765015.2,286047001.5,N
1515765035.0,286047004.4,N
1515765035.9,286047004.4,N
1515765055.7,286047003.0,N
1515765075.6,286047005.4,N
1515765095.4,286047003.4,N
1515765115.3,286047005.7,N
1515765135.1,286047003.6,N
1515765136.0,286047003.6,N
1515765155.8,286047004.3,N
1515765175.7,286047002.5,N
1515765195.5,286047002.8,N
1515765215.4,286046999.9,N
1515765235.2,286047002.3,N
1515765255.0,286047002.4,N
1515765255.9,286047002.4,N
1515765275.8,286047001.8,N
1515765295.6,286047001.5,N
1515765315.4,286047001.7,N
1515765335.3,286047002.4,N
1515765355.1,286047001.9,N
1515765375.9,286047002.1,N
1515765395.7,286046999.7,N
1515765415.5,286046999.9,N
1515765435.4,286047000.6,N
1515765455.2,286047000.5,N
1515765475.0,286047001.0,N
1515765475.9,286047001.0,N
1515765495.8,286046999.7,N
1515765515.6,286047002.7,N
1515765535.5,286046999.8,N
1515765555.3,286047000.3,N
1515765575.1,286047000.3,N
1515765595.9,286047000.0,N
